Regional Weather Roundup
Issued by NWS

Home | Current Version | Previous Version | Graphics & Text | Print | Product List | Glossary On
Versions: 1 2 3 4 5 6 7 8 9 10 11 12 13 14 15 16 17 18 19 20 21 22 23 24 25 26 27 28 29 30 31 32 33 34 35 36 37 38 39 40 41 42 43 44 45 46 47 48 49 50
000
ASUS45 KCYS 020010
RWRWY

WYOMING REGIONAL WEATHER ROUNDUP
NATIONAL WEATHER SERVICE CHEYENNE WY
500 PM MST SUN FEB 01 2015

NOTE:  "FAIR" INDICATES FEW OR NO CLOUDS BELOW 12,000 FEET
WITH NO SIGNIFICANT WEATHER AND/OR OBSTRUCTIONS TO VISIBILITY.

WYZ001-020100-
YELLOWSTONE NATIONAL PARK

CITY           SKY/WX    TMP DP  RH WIND       PRES   REMARKS
LK YELLOWSTONE   N/A     20  16  84 CALM      30.04S
6HR MIN TEMP:  15; 6HR MAX TEMP:  24; 6HR PCP:  0.01;

W YELLOWSTONE  NOT AVBL

$$
WYZ002>013-054>058-071-098>099-020100-
NORTHERN WYOMING

CITY           SKY/WX    TMP DP  RH WIND       PRES   REMARKS
JACKSON        CLOUDY    25  19  80 CALM      30.07R
CODY           MOCLDY    25  18  74 SE7       29.98F WCI  17
GREYBULL       FAIR      24  15  68 SE8       30.09F WCI  15
6HR MIN TEMP:  17; 6HR MAX TEMP:  24;

WORLAND        MOCLDY    22  15  75 E13       30.06F WCI  10
6HR MIN TEMP:  16; 6HR MAX TEMP:  22;

SHERIDAN       FAIR      28  12  51 SE6       30.02F WCI  22
6HR MIN TEMP:  18; 6HR MAX TEMP:  29;

BUFFALO          N/A    N/A N/A N/A MISG      30.01F
GILLETTE       FAIR      22  10  60 S7        30.05F WCI  13
6HR MIN TEMP:  11; 6HR MAX TEMP:  23;

HULETT           N/A    N/A N/A N/A MISG        N/A
NEWCASTLE      FAIR      18   5  57 N3        30.15F

$$
WYZ014>020-022>026-101>103-020100-
CENTRAL WYOMING

CITY           SKY/WX    TMP DP  RH WIND       PRES   REMARKS
BIG PINEY      CLOUDY    33   9  36 CALM      30.07F
6HR MIN TEMP:  24; 6HR MAX TEMP:  34;

PINEDALE       CLOUDY    27  14  59 E3        30.08F
DUBOIS         FAIR      30  12  47 N17G24    29.95F WCI  18
LANDER         FAIR      29  18  63 NE5       30.01F WCI  24
6HR MIN TEMP:  25; 6HR MAX TEMP:  31;

RIVERTON       FAIR      26  14  60 NE9       30.02F WCI  17
6HR MIN TEMP:  24; 6HR MAX TEMP:  29;

CASPER         FAIR      26  14  60 SW10      30.05F WCI  16
6HR MIN TEMP:  14; 6HR MAX TEMP:  29;

DOUGLAS        FAIR      26  10  50 NW5       30.09F WCI  20
6HR MIN TEMP:  19; 6HR MAX TEMP:  27;


$$
WYZ021-027>030-104>119-020100-
SOUTHERN WYOMING

CITY           SKY/WX    TMP DP  RH WIND       PRES   REMARKS
EVANSTON       CLOUDY    35  16  45 SW15      30.12F WCI  25
6HR MIN TEMP:  32; 6HR MAX TEMP:  37;

KEMMERER       FAIR      32  21  64 W10       30.10S WCI  24
FORT BRIDGER   CLOUDY    36  20  53 W8        30.13F WCI  29
ROCK SPRINGS   FAIR      33  10  38 W20       30.08F WCI  21
6HR MIN TEMP:  28; 6HR MAX TEMP:  35;

DIXON          CLOUDY    32  17  52 CALM      30.14S
RAWLINS        FAIR      29  15  56 SW9       30.07F WCI  20
6HR MIN TEMP:  25; 6HR MAX TEMP:  32;

SARATOGA       MOCLDY    28  14  54 W6        30.09S WCI  22
LARAMIE        FAIR      23   9  55 NW10      30.03F WCI  12
6HR MIN TEMP:  20; 6HR MAX TEMP:  25; 6HR PCP: TRACE;

CHEYENNE       FAIR      22   9  57 E6        30.07F WCI  14
6HR MIN TEMP:  19; 6HR MAX TEMP:  25;

TORRINGTON     FAIR      24   3  40 N7        30.15F WCI  16
6HR MIN TEMP:  19; 6HR MAX TEMP:  27;

PINE BLUFFS    FAIR      21  10  63 N6        30.14S WCI  14

$$


USA.gov is the U.S. government's official web portal to all federal, state and local government web resources and services.